Location: Kott?ru
(16.6209°N, 80.6208°E)
Time: 16:16:43
(UTC+00:00)

XW-2D - Visible Passes

Search period start: 15 April 2024 00:00
Search period end: 25 April 2024 00:00
Orbit: 429 x 442 km, 97.5° (Epoch: 15 April)

Date Brightness Start Highest point End Pass type
(mag) Time Alt. Az. Time Alt. Az. Time Alt. Az.
16 Apr ? 13:34:08 10° SSW 13:36:55 25° W 13:39:42 10° NW visible
18 Apr ? 13:48:14 10° SW 13:50:17 15° W 13:52:19 10° WNW visible
21 Apr ? 13:20:21 10° S 13:23:31 44° W 13:26:40 10° NNW visible
23 Apr ? 13:33:12 10° SSW 13:36:02 27° W 13:38:52 10° NW visible
